Time,TemperatureF,DewpointF,PressureIn,WindDirection,WindDirectionDegrees,WindSpeedMPH,WindSpeedGustMPH,Humidity,HourlyPrecipIn,Conditions,Clouds,dailyrainin,SoftwareType,DateUTC
2013-02-26 00:01:00,36.0,31.0,-100.00,ENE,60,14.0,-999.0,82,0.00,,,-99.99,,2013-02-26 09:01:00,
2013-02-26 00:11:00,36.0,31.0,-100.00,ENE,60,14.0,-999.0,82,0.00,,,-99.99,,2013-02-26 09:11:00,
2013-02-26 00:21:00,36.0,31.0,-100.00,ENE,60,14.0,-999.0,82,0.00,,,-99.99,,2013-02-26 09:21:00,
2013-02-26 00:30:00,36.0,32.0,-100.00,ENE,58,10.0,-999.0,85,0.01,,,-99.99,,2013-02-26 09:30:00,
2013-02-26 00:52:00,36.0,32.0,-100.00,ENE,58,10.0,-999.0,85,0.01,,,-99.99,,2013-02-26 09:52:00,
2013-02-26 01:01:00,36.0,32.0,-100.00,ENE,58,10.0,-999.0,85,0.01,,,-99.99,,2013-02-26 10:01:00,
2013-02-26 01:11:00,36.0,32.0,-100.00,ENE,58,10.0,-999.0,85,0.01,,,-99.99,,2013-02-26 10:11:00,
2013-02-26 01:21:00,36.0,32.0,-100.00,ENE,58,10.0,-999.0,85,0.01,,,-99.99,,2013-02-26 10:21:00,
2013-02-26 01:30:00,37.0,32.0,-100.00,ENE,64,12.0,-999.0,81,0.00,,,-99.99,,2013-02-26 10:30:00,
2013-02-26 01:52:00,37.0,32.0,-100.00,ENE,64,12.0,-999.0,81,0.00,,,-99.99,,2013-02-26 10:52:00,
2013-02-26 02:01:00,37.0,32.0,-100.00,ENE,64,12.0,-999.0,81,0.00,,,-99.99,,2013-02-26 11:01:00,
2013-02-26 02:11:00,37.0,32.0,-100.00,ENE,64,12.0,-999.0,81,0.00,,,-99.99,,2013-02-26 11:11:00,
2013-02-26 02:21:00,37.0,32.0,-100.00,ENE,64,12.0,-999.0,81,0.00,,,-99.99,,2013-02-26 11:21:00,
2013-02-26 02:30:00,37.0,31.0,-100.00,ENE,70,11.0,-999.0,79,0.00,,,-99.99,,2013-02-26 11:30:00,
2013-02-26 02:52:00,37.0,31.0,-100.00,ENE,70,11.0,-999.0,79,0.00,,,-99.99,,2013-02-26 11:52:00,
2013-02-26 03:01:00,37.0,31.0,-100.00,ENE,70,11.0,-999.0,79,0.00,,,-99.99,,2013-02-26 12:01:00,
2013-02-26 03:11:00,37.0,31.0,-100.00,ENE,70,11.0,-999.0,79,0.00,,,-99.99,,2013-02-26 12:11:00,
2013-02-26 03:22:00,37.0,31.0,-100.00,ENE,70,11.0,-999.0,79,0.00,,,-99.99,,2013-02-26 12:22:00,
2013-02-26 03:30:00,38.0,30.0,-100.00,NE,50,23.0,-999.0,73,0.00,,,-99.99,,2013-02-26 12:30:00,
2013-02-26 03:53:00,38.0,30.0,-100.00,NE,50,23.0,-999.0,73,0.00,,,-99.99,,2013-02-26 12:53:00,
2013-02-26 04:01:00,38.0,30.0,-100.00,NE,50,23.0,-999.0,73,0.00,,,-99.99,,2013-02-26 13:01:00,
2013-02-26 04:11:00,38.0,30.0,-100.00,NE,50,23.0,-999.0,73,0.00,,,-99.99,,2013-02-26 13:11:00,
2013-02-26 04:21:00,38.0,30.0,-100.00,NE,50,23.0,-999.0,73,0.00,,,-99.99,,2013-02-26 13:21:00,
2013-02-26 04:30:00,37.0,31.0,-100.00,NE,46,21.0,-999.0,78,0.00,,,-99.99,,2013-02-26 13:30:00,
2013-02-26 04:52:00,37.0,31.0,-100.00,NE,46,21.0,-999.0,78,0.00,,,-99.99,,2013-02-26 13:52:00,
2013-02-26 05:01:00,37.0,31.0,-100.00,NE,46,21.0,-999.0,78,0.00,,,-99.99,,2013-02-26 14:01:00,
2013-02-26 05:11:00,37.0,31.0,-100.00,NE,46,21.0,-999.0,78,0.00,,,-99.99,,2013-02-26 14:11:00,
2013-02-26 05:21:00,37.0,31.0,-100.00,NE,46,21.0,-999.0,78,0.00,,,-99.99,,2013-02-26 14:21:00,
2013-02-26 05:30:00,37.0,29.0,-100.00,ENE,57,27.0,-999.0,73,0.00,,,-99.99,,2013-02-26 14:30:00,
2013-02-26 05:52:00,37.0,29.0,-100.00,ENE,57,27.0,-999.0,73,0.00,,,-99.99,,2013-02-26 14:52:00,
2013-02-26 06:02:00,37.0,29.0,-100.00,ENE,57,27.0,-999.0,73,0.00,,,-99.99,,2013-02-26 15:02:00,
2013-02-26 06:11:00,37.0,29.0,-100.00,ENE,57,27.0,-999.0,73,0.00,,,-99.99,,2013-02-26 15:11:00,
2013-02-26 06:21:00,37.0,29.0,-100.00,ENE,57,27.0,-999.0,73,0.00,,,-99.99,,2013-02-26 15:21:00,
2013-02-26 06:30:00,36.0,28.0,-100.00,ENE,57,25.0,-999.0,71,0.00,,,-99.99,,2013-02-26 15:30:00,
2013-02-26 06:52:00,36.0,28.0,-100.00,ENE,57,25.0,-999.0,71,0.00,,,-99.99,,2013-02-26 15:52:00,
2013-02-26 07:01:00,36.0,28.0,-100.00,ENE,57,25.0,-999.0,71,0.00,,,-99.99,,2013-02-26 16:01:00,
2013-02-26 07:11:00,36.0,28.0,-100.00,ENE,57,25.0,-999.0,71,0.00,,,-99.99,,2013-02-26 16:11:00,
2013-02-26 07:22:00,36.0,28.0,-100.00,ENE,57,25.0,-999.0,71,0.00,,,-99.99,,2013-02-26 16:22:00,
2013-02-26 07:30:00,36.0,28.0,-100.00,ENE,57,28.0,-999.0,73,0.00,,,-99.99,,2013-02-26 16:30:00,
2013-02-26 07:52:00,36.0,28.0,-100.00,ENE,57,28.0,-999.0,73,0.00,,,-99.99,,2013-02-26 16:52:00,
2013-02-26 08:01:00,36.0,28.0,-100.00,ENE,57,28.0,-999.0,73,0.00,,,-99.99,,2013-02-26 17:01:00,
2013-02-26 08:11:00,36.0,28.0,-100.00,ENE,57,28.0,-999.0,73,0.00,,,-99.99,,2013-02-26 17:11:00,
2013-02-26 08:21:00,36.0,28.0,-100.00,ENE,57,28.0,-999.0,73,0.00,,,-99.99,,2013-02-26 17:21:00,
2013-02-26 08:30:00,36.0,28.0,-100.00,NE,56,26.0,-999.0,70,0.00,,,-99.99,,2013-02-26 17:30:00,
2013-02-26 08:52:00,36.0,28.0,-100.00,NE,56,26.0,-999.0,70,0.00,,,-99.99,,2013-02-26 17:52:00,
2013-02-26 09:01:00,36.0,28.0,-100.00,NE,56,26.0,-999.0,70,0.00,,,-99.99,,2013-02-26 18:01:00,
2013-02-26 09:12:00,36.0,28.0,-100.00,NE,56,26.0,-999.0,70,0.00,,,-99.99,,2013-02-26 18:12:00,
2013-02-26 09:21:00,36.0,28.0,-100.00,NE,56,26.0,-999.0,70,0.00,,,-99.99,,2013-02-26 18:21:00,
2013-02-26 09:30:00,36.0,28.0,-100.00,NE,50,23.0,-999.0,70,0.00,,,-99.99,,2013-02-26 18:30:00,
2013-02-26 09:52:00,36.0,28.0,-100.00,NE,50,23.0,-999.0,70,0.00,,,-99.99,,2013-02-26 18:52:00,
2013-02-26 10:01:00,36.0,28.0,-100.00,NE,50,23.0,-999.0,70,0.00,,,-99.99,,2013-02-26 19:01:00,
2013-02-26 10:11:00,36.0,28.0,-100.00,NE,50,23.0,-999.0,70,0.00,,,-99.99,,2013-02-26 19:11:00,
2013-02-26 10:22:00,36.0,28.0,-100.00,NE,50,23.0,-999.0,70,0.00,,,-99.99,,2013-02-26 19:22:00,
2013-02-26 10:30:00,37.0,28.0,-100.00,NE,53,22.0,-999.0,70,0.00,,,-99.99,,2013-02-26 19:30:00,
2013-02-26 10:52:00,37.0,28.0,-100.00,NE,53,22.0,-999.0,70,0.00,,,-99.99,,2013-02-26 19:52:00,
2013-02-26 11:01:00,37.0,28.0,-100.00,NE,53,22.0,-999.0,70,0.00,,,-99.99,,2013-02-26 20:01:00,
2013-02-26 11:11:00,37.0,28.0,-100.00,NE,53,22.0,-999.0,70,0.00,,,-99.99,,2013-02-26 20:11:00,
2013-02-26 11:21:00,37.0,28.0,-100.00,NE,53,22.0,-999.0,70,0.00,,,-99.99,,2013-02-26 20:21:00,
2013-02-26 11:30:00,37.0,29.0,-100.00,NE,50,21.0,-999.0,71,0.00,,,-99.99,,2013-02-26 20:30:00,
2013-02-26 11:52:00,37.0,29.0,-100.00,NE,50,21.0,-999.0,71,0.00,,,-99.99,,2013-02-26 20:52:00,
2013-02-26 12:01:00,37.0,29.0,-100.00,NE,50,21.0,-999.0,71,0.00,,,-99.99,,2013-02-26 21:01:00,
2013-02-26 12:11:00,37.0,29.0,-100.00,NE,50,21.0,-999.0,71,0.00,,,-99.99,,2013-02-26 21:11:00,
2013-02-26 12:21:00,37.0,29.0,-100.00,NE,50,21.0,-999.0,71,0.00,,,-99.99,,2013-02-26 21:21:00,
2013-02-26 12:30:00,38.0,29.0,-100.00,NE,50,22.0,-999.0,69,0.00,,,-99.99,,2013-02-26 21:30:00,
2013-02-26 12:51:00,38.0,29.0,-100.00,NE,50,22.0,-999.0,69,0.00,,,-99.99,,2013-02-26 21:51:00,
2013-02-26 13:01:00,38.0,29.0,-100.00,NE,50,22.0,-999.0,69,0.00,,,-99.99,,2013-02-26 22:01:00,
2013-02-26 13:11:00,38.0,29.0,-100.00,NE,50,22.0,-999.0,69,0.00,,,-99.99,,2013-02-26 22:11:00,
2013-02-26 13:21:00,38.0,29.0,-100.00,NE,50,22.0,-999.0,69,0.00,,,-99.99,,2013-02-26 22:21:00,
2013-02-26 13:30:00,38.0,29.0,-100.00,ENE,59,24.0,-999.0,70,0.00,,,-99.99,,2013-02-26 22:30:00,
2013-02-26 13:52:00,38.0,29.0,-100.00,ENE,59,24.0,-999.0,70,0.00,,,-99.99,,2013-02-26 22:52:00,
2013-02-26 14:01:00,38.0,29.0,-100.00,ENE,59,24.0,-999.0,70,0.00,,,-99.99,,2013-02-26 23:01:00,
2013-02-26 14:11:00,38.0,29.0,-100.00,ENE,59,24.0,-999.0,70,0.00,,,-99.99,,2013-02-26 23:11:00,
2013-02-26 14:21:00,38.0,29.0,-100.00,ENE,59,24.0,-999.0,70,0.00,,,-99.99,,2013-02-26 23:21:00,
2013-02-26 14:30:00,38.0,30.0,-100.00,NE,47,23.0,-999.0,72,0.00,,,-99.99,,2013-02-26 23:30:00,
2013-02-26 14:52:00,38.0,30.0,-100.00,NE,47,23.0,-999.0,72,0.00,,,-99.99,,2013-02-26 23:52:00,
2013-02-26 15:01:00,38.0,30.0,-100.00,NE,47,23.0,-999.0,72,0.00,,,-99.99,,2013-02-27 00:01:00,
2013-02-26 15:11:00,38.0,30.0,-100.00,NE,47,23.0,-999.0,72,0.00,,,-99.99,,2013-02-27 00:11:00,
2013-02-26 15:21:00,38.0,30.0,-100.00,NE,47,23.0,-999.0,72,0.00,,,-99.99,,2013-02-27 00:21:00,
2013-02-26 15:30:00,38.0,30.0,-100.00,ENE,57,16.0,-999.0,73,0.00,,,-99.99,,2013-02-27 00:30:00,
2013-02-26 15:52:00,38.0,30.0,-100.00,ENE,57,16.0,-999.0,73,0.00,,,-99.99,,2013-02-27 00:52:00,
2013-02-26 16:01:00,38.0,30.0,-100.00,ENE,57,16.0,-999.0,73,0.00,,,-99.99,,2013-02-27 01:01:00,
2013-02-26 16:11:00,38.0,30.0,-100.00,ENE,57,16.0,-999.0,73,0.00,,,-99.99,,2013-02-27 01:11:00,
2013-02-26 16:21:00,38.0,30.0,-100.00,ENE,57,16.0,-999.0,73,0.00,,,-99.99,,2013-02-27 01:21:00,
2013-02-26 16:30:00,37.0,31.0,-100.00,SE,138,9.0,-999.0,79,0.00,,,-99.99,,2013-02-27 01:30:00,
2013-02-26 16:52:00,37.0,31.0,-100.00,SE,138,9.0,-999.0,79,0.00,,,-99.99,,2013-02-27 01:52:00,
2013-02-26 17:01:00,37.0,31.0,-100.00,SE,138,9.0,-999.0,79,0.00,,,-99.99,,2013-02-27 02:01:00,
2013-02-26 17:13:00,37.0,31.0,-100.00,SE,138,9.0,-999.0,79,0.00,,,-99.99,,2013-02-27 02:13:00,
2013-02-26 17:22:00,37.0,31.0,-100.00,SE,138,9.0,-999.0,79,0.00,,,-99.99,,2013-02-27 02:22:00,
2013-02-26 17:30:00,38.0,32.0,-100.00,East,85,6.0,-999.0,79,0.00,,,-99.99,,2013-02-27 02:30:00,
2013-02-26 17:52:00,38.0,32.0,-100.00,East,85,6.0,-999.0,79,0.00,,,-99.99,,2013-02-27 02:52:00,
2013-02-26 18:01:00,38.0,32.0,-100.00,East,85,6.0,-999.0,79,0.00,,,-99.99,,2013-02-27 03:01:00,
2013-02-26 18:11:00,38.0,32.0,-100.00,East,85,6.0,-999.0,79,0.00,,,-99.99,,2013-02-27 03:11:00,
2013-02-26 18:21:00,38.0,32.0,-100.00,East,85,6.0,-999.0,79,0.00,,,-99.99,,2013-02-27 03:21:00,
2013-02-26 18:30:00,37.0,33.0,-100.00,ESE,112,6.0,-999.0,87,0.00,,,-99.99,,2013-02-27 03:30:00,
2013-02-26 18:52:00,37.0,33.0,-100.00,ESE,112,6.0,-999.0,87,0.00,,,-99.99,,2013-02-27 03:52:00,
2013-02-26 19:01:00,37.0,33.0,-100.00,ESE,112,6.0,-999.0,87,0.00,,,-99.99,,2013-02-27 04:01:00,
2013-02-26 19:11:00,37.0,33.0,-100.00,ESE,112,6.0,-999.0,87,0.00,,,-99.99,,2013-02-27 04:11:00,
2013-02-26 19:21:00,37.0,33.0,-100.00,ESE,112,6.0,-999.0,87,0.00,,,-99.99,,2013-02-27 04:21:00,
2013-02-26 19:30:00,39.0,30.0,-100.00,East,84,14.0,-999.0,69,0.00,,,-99.99,,2013-02-27 04:30:00,
2013-02-26 19:52:00,39.0,30.0,-100.00,East,84,14.0,-999.0,69,0.00,,,-99.99,,2013-02-27 04:52:00,
2013-02-26 20:01:00,39.0,30.0,-100.00,East,84,14.0,-999.0,69,0.00,,,-99.99,,2013-02-27 05:01:00,
2013-02-26 20:11:00,39.0,30.0,-100.00,East,84,14.0,-999.0,69,0.00,,,-99.99,,2013-02-27 05:11:00,
2013-02-26 20:22:00,39.0,30.0,-100.00,East,84,14.0,-999.0,69,0.00,,,-99.99,,2013-02-27 05:22:00,
2013-02-26 20:30:00,37.0,31.0,-100.00,ENE,76,13.0,-999.0,78,0.00,,,-99.99,,2013-02-27 05:30:00,
2013-02-26 20:52:00,37.0,31.0,-100.00,ENE,76,13.0,-999.0,78,0.00,,,-99.99,,2013-02-27 05:52:00,
2013-02-26 21:02:00,37.0,31.0,-100.00,ENE,76,13.0,-999.0,78,0.00,,,-99.99,,2013-02-27 06:02:00,
2013-02-26 21:11:00,37.0,31.0,-100.00,ENE,76,13.0,-999.0,78,0.00,,,-99.99,,2013-02-27 06:11:00,
2013-02-26 21:21:00,37.0,31.0,-100.00,ENE,76,13.0,-999.0,78,0.00,,,-99.99,,2013-02-27 06:21:00,
2013-02-26 21:30:00,37.0,31.0,-100.00,NE,50,20.0,-999.0,79,0.00,,,-99.99,,2013-02-27 06:30:00,
2013-02-26 21:52:00,37.0,31.0,-100.00,NE,50,20.0,-999.0,79,0.00,,,-99.99,,2013-02-27 06:52:00,
2013-02-26 22:01:00,37.0,31.0,-100.00,NE,50,20.0,-999.0,79,0.00,,,-99.99,,2013-02-27 07:01:00,
2013-02-26 22:12:00,37.0,31.0,-100.00,NE,50,20.0,-999.0,79,0.00,,,-99.99,,2013-02-27 07:12:00,
2013-02-26 22:21:00,37.0,31.0,-100.00,NE,50,20.0,-999.0,79,0.00,,,-99.99,,2013-02-27 07:21:00,
2013-02-26 22:30:00,37.0,32.0,-100.00,East,94,8.0,-999.0,81,0.00,,,-99.99,,2013-02-27 07:30:00,
2013-02-26 22:52:00,37.0,32.0,-100.00,East,94,8.0,-999.0,81,0.00,,,-99.99,,2013-02-27 07:52:00,
2013-02-26 23:01:00,37.0,32.0,-100.00,East,94,8.0,-999.0,81,0.00,,,-99.99,,2013-02-27 08:01:00,
2013-02-26 23:11:00,37.0,32.0,-100.00,East,94,8.0,-999.0,81,0.00,,,-99.99,,2013-02-27 08:11:00,
2013-02-26 23:21:00,37.0,32.0,-100.00,East,94,8.0,-999.0,81,0.00,,,-99.99,,2013-02-27 08:21:00,
2013-02-26 23:30:00,36.0,32.0,-100.00,ESE,102,6.0,-999.0,85,0.00,,,-99.99,,2013-02-27 08:30:00,
2013-02-26 23:52:00,36.0,32.0,-100.00,ESE,102,6.0,-999.0,85,0.00,,,-99.99,,2013-02-27 08:52:00,